Current weather by "City, St" or "zip code"  
 

Current Conditions: Bowling Green, Bowling Green-Warren County Regional Airport, KY

Overcast


50.0 F

Last Updated on Oct 24 2020, 11:53 am CDT
Humidity: 86%
Wind Speed: NE 11.5 mph
Barometer 30.14 in
Dewpoint: 46.0 F
Visibility: 10.00 mi
Precip: --
Heat Index: NA
Wind Chill: 46 F
Current conditions at:

Bowling Green, Bowling Green-Warren County Regional Airport, KY (KBWG)

Lat: 36.96444 Lon: 86.41944

Local Radar Image active severe weather and emergency alerts image image weather storm and storm spotter reports image weather observation monitoring service image
Local
Radar
Active
Alerts
Storm Reports Obs
Monitoring

Sign-up For Email & Text Message Weather Alert Notification Services



Advertise Here

Observation History for Bowling Green, Bowling Green-Warren County Regional Airport, KY


Time Wind
(mph)
Vis
(mi)
Weather Precip (in) Temperature (F) Relative
Humidity
Wind
Chill
(F)
Heat
Index
(F)
Pressure
Air Dwpt altimeter
(in)
sea level
(mb)
Rmks
11:53 am CDT NE 11.5 10.00 Overcast -- 50.0 46.0 86% 46 NA 30.14 1020.6
10:53 am CDT N 9.2 10.00 Overcast -- 50.0 46.0 86% 46 NA 30.15 1020.9
9:53 am CDT NE 6.9 10.00 Overcast -- 50.0 46.0 86% 47 NA 30.17 1021.6
8:53 am CDT NE 4.6 4.00 Fog/Mist -- 49.0 46.0 90% 47 NA 30.17 1021.6
7:53 am CDT N 6.9 10.00 Overcast -- 49.0 46.0 90% 46 NA 30.16 1021.3
6:53 am CDT 5.8 10.00 Overcast -- 49.0 46.0 90% 47 NA 30.16 1021.0
5:53 am CDT N 5.8 10.00 Overcast -- 49.0 45.0 86% 47 NA 30.16 1021.2
4:53 am CDT N 6.9 9.00 Overcast -- 49.0 45.0 86% 46 NA 30.15 1020.9
3:53 am CDT 3.5 10.00 Overcast -- 49.0 45.0 86% NA NA 30.15 1020.6
2:53 am CDT 5.8 10.00 Overcast -- 50.0 45.0 83% 48 NA 30.15 1020.7
1:53 am CDT NW 4.6 10.00 Overcast -- 50.0 46.0 86% 48 NA 30.16 1020.8
12:53 am CDT 5.8 10.00 Overcast -- 51.0 46.9 86% 49 NA 30.14 1020.4
11:53 pm CDT NW 9.2 G 18.4 10.00 Overcast -- 51.0 48.0 89% 48 NA 30.14 1020.4
10:53 pm CDT N 9.2 10.00 Overcast -- 54.0 50.0 87% 51 NA 30.13 1020.0
9:53 pm CDT NW 6.9 G 17.3 10.00 Overcast -- 57.0 54.0 90% 56 NA 30.10 1018.9
8:53 pm CDT NW 6.9 G 21.9 10.00 Overcast -- 61.0 57.0 87% 60 NA 30.08 1018.3
7:53 pm CDT SW 3.5 10.00 A Few Clouds 00.01 66.0 62.1 87% NA NA 30.05 1017.1
6:53 pm CDT W 9.2 9.00 Light Rain 00.04 67.0 62.1 84% NA NA 30.04 1016.8
5:53 pm CDT SE 9.2 6.00 Thunderstorm Light Rain Fog/Mist 00.23 66.0 63.0 90% NA NA 30.01 1015.7
4:53 pm CDT SW 3.5 10.00 Thunderstorm in Vicinity -- 75.0 66.0 74% NA NA 29.99 1015.0
3:53 pm CDT S 5.8 10.00 Fair -- 77.0 68.0 74% NA NA 29.98 1014.7
2:53 pm CDT SE 3.5 10.00 A Few Clouds -- 76.0 63.0 64% NA NA 29.98 1014.8
1:53 pm CDT SW 8.1 10.00 Thunderstorm in Vicinity -- 80.0 66.0 62% NA 82 30.01 1015.5
12:53 pm CDT SW 11.5 10.00 Thunderstorm in Vicinity -- 80.0 66.9 64% NA 82 30.04 1016.8

Regional Weather Observation


Glasgow, Glasgow Municipal Airport, KY (KGLW)

Overcast
50.0 F

Madisonville Municipal Airport, KY (K2I0)

Overcast
53.0 F

Owensboro, Owensboro-Daviess County Airport, KY (KOWB)

Overcast
51.0 F

Fort Knox, KY (KFTK)

Overcast
49.0 F

Clarksville Outlaw Field, TN (KCKV)

Light Rain Fog/Mist
50.0 F

Nashville, Nashville International Airport, TN (KBNA)

Light Rain Fog/Mist
53.0 F